Terug naar catalogus

SL-16 DEB

ActiefLEO
NORAD 22362·DEBRIS·🇷🇺 Russia

Gelanceerd Dec 25, 1992 vanaf Baikonur Cosmodrome

Loading…

Volgende Passages (komende 24 uur)

TLE

VersSource: Space-Track

Epoch: Sep 14, 2026, 11:13 UTC

1 22362U 92093BB  26257.46804780  .00000550  00000-0  42248-3 0  9990
2 22362  70.8918 288.7458 0185039  23.8949  43.1524 13.89748001693540

Volg SL-16 DEB in realtime met AllMySat

Download on the App Store